Regional Weather Roundup
Issued by NWS Wakefield, VA

Home | Current Version | Previous Version | Graphics & Text | Print | Product List | Glossary Off
Versions: 1 2 3 4 5 6 7 8 9 10 11 12 13 14 15 16 17 18 19 20 21 22 23 24 25 26 27 28 29 30 31 32 33 34 35 36 37 38 39 40 41 42 43 44 45 46 47 48 49 50

770
ASUS41 KAKQ 260614
RWRAKQ

REGIONAL WEATHER ROUNDUP
NATIONAL WEATHER SERVICE WAKEFIELD VA
100 AM EST SUN FEB 26 2017

Note: "fair" indicates few or no clouds below 12,000 feet with no
significant weather and/or obstructions to visibility. * = Denotes
station may not report precipitation (e.g., rain,snow,etc.),
thunder or fog.

VAZ042-051-052>054-056-260700-
NORTHERN VIRGINIA

CITY           SKY/WX    TMP DP  RH WIND       PRES   REMARKS
WASH NATIONAL  MOCLDY    44  23  43 NW18G28   29.89R
DULLES         PTCLDY    40  21  46 NW18G25   29.90R
FORT BELVOIR   MOCLDY    42  22  44 NW12      29.90R
QUANTICO       CLEAR     43  22  43 N18G30    29.92R
FREDERICKSBRG* CLEAR     44  25  47 N10G21    29.89R
STAFFORD*      CLEAR     39  24  53 NW14G21   29.94R
WARRENTON      CLEAR     40  18  40 NW12      29.90R
CULPEPER*      CLEAR     41  22  46 NW8       29.91R
MANASSAS*      PTCLDY    40  22  48 NW12      29.91R
LEESBURG*      CLOUDY    41  28  60 MISG      29.90R
WINCHESTER     MOCLDY    34  19  55 NW23G31   29.89R WCI  22
FRONT ROYAL*   NOT AVBL
LURAY*         NOT AVBL
$$

VAZ048-049-060>072-079>083-260700-
CENTRAL AND SOUTH CENTRAL VIRGINIA

CITY           SKY/WX    TMP DP  RH WIND       PRES   REMARKS
RICHMOND       CLEAR     47  22  37 NW14      29.87R
CHESTERFIELD*  FAIR      45  14  29 NW8       29.89R
PETERSBURG*    CLEAR     46  20  35 W10       29.88R
HANOVER        CLEAR     45  20  36 NW7       29.89R
TAPPAHANNOCK*  CLEAR     47  15  28 N9        29.87R
QUINTON*       NOT AVBL
CHARLOTTSVILLE CLEAR     41  20  43 CALM      29.89R
GORDONSVILLE*  NOT AVBL
ORANGE*        CLEAR     39  21  48 CALM      29.91R
LOUISA*        CLEAR     45  25  45 NW10      29.87R
BUMPASS*       FAIR      43  20  40 W5        29.88R
FARMVILLE*     CLEAR     42  23  47 CALM      29.91R
CREWE*         FAIR      44  22  41 W9G16     29.89R
FORT PICKETT*  NOT AVBL
CHASE CITY*    FAIR      43  18  36 W5        29.92R
CLARKSVILLE*   FAIR      43  21  42 W7        29.91R
SOUTH HILL*    CLEAR     44  23  43 NW7       29.96R
LAWRENCEVILLE* FAIR      46  22  39 W6        29.89R
EMPORIA*       CLEAR     46  23  39 W9        29.90R
$$

VAZ088>098-260700-
SOUTHEAST VIRGINIA

CITY           SKY/WX    TMP DP  RH WIND       PRES   REMARKS
NORFOLK        CLEAR     52  44  74 VRB3      29.83R
VIRGINIA BEACH PTCLDY    49  40  71 W5        29.82R
NORFOLK NAVAL  PTCLDY    54  26  34 NW17      29.84R
WEST POINT*    CLEAR     49  21  33 NW8       29.87R
SALUDA*        FAIR      48  30  48 NW13G21   29.85R
NEWPORT NEWS   PTCLDY    52  25  35 NW13      29.84R
LANGLEY AFB    PTCLDY    52  26  36 NW9       29.83R
FORT EUSTIS    CLEAR     51  28  41 NW16G23   29.82R
WILLIAMSBURG*  CLEAR     52  27  37 NW9G16    29.86R
HR EXEC AP*    NOT AVBL
FRANKLIN*      CLEAR     50  26  39 NW10G22   29.88R
US460-WAKEFLD  CLEAR     49  23  36 W8        29.86R
$$

VAZ020-022-025-037-045-260700-
WEST CENTRAL AND SOUTHWEST VIRGINIA

CITY           SKY/WX    TMP DP  RH WIND       PRES   REMARKS
STAUNTON*      CLEAR     31  19  62 NW7       29.91R
WAYNESBORO*    CLEAR     34  18  51 CALM      29.88R
HOT SPRINGS VA CLOUDY    25  16  68 NW22G32   29.79S WCI  10
LYNCHBURG      CLEAR     37  19  48 W6        29.94R
DANVILLE       CLEAR     41  20  43 NW12      29.96R
SOUTH BOSTON*  FAIR      43  17  34 W9G18     29.94R
MARTINSVILLE   CLEAR     38  18  44 NW9       29.99R
ROANOKE        CLEAR     36  17  46 W16G25    29.97R
BLACKSBURG     PTCLDY    31  19  61 W12G22    29.96S WCI  22
DUBLIN*        MOCLDY    32  20  61 NW14      29.98R WCI  22
MARION*        MOCLDY    30  19  63 W16G26    29.98R WCI  19
HILLSVILLE*    CLEAR     30  19  65 NW16G26   29.91R WCI  18
RICHLANDS*     CLOUDY    28  19  69 CALM      30.01R
WISE*          PTCLDY    28  19  69 CALM      30.03S
ABINGDON*      CLEAR     32  19  58 NW6       30.04R
$$

MDZ021>025-VAZ099-100-260700-
SOUTHERN MARYLAND AND THE DELMARVA PENINSULA

CITY           SKY/WX    TMP DP  RH WIND       PRES   REMARKS
PATUXENT RIVER CLEAR     44  27  51 NW28G35   29.85R
BAY BRIDGE APT PTCLDY    43  27  52 NW16G24   29.88R
LEONARDTOWN    CLEAR     43  23  45 NW12G20   29.88R
DOVER          CLEAR     44  29  56 W17       29.81R
GEORGETOWN     CLEAR     47  28  47 NW13G21   29.81R
EASTON         PTCLDY    44  25  47 N18G24    29.89R
CAMBRIDGE      CLEAR     45  28  53 NW15G25   29.85R
SALISBURY      PTCLDY    46  29  51 NW14G21   29.82R
OCEAN CITY     CLEAR     47  29  49 NW12G25   29.80R
WALLOPS ISLAND CLEAR     47  30  51 NW15G22   29.81R
ACCOMACK*      CLEAR     48  32  54 NW17G28   29.83R
$$

NCZ012>017-030>032-260700-
NORTH CENTRAL AND EASTERN NORTH CAROLINA

CITY           SKY/WX    TMP DP  RH WIND       PRES   REMARKS
ROANOKE RAPIDS FAIR      46  23  39 NW6       29.90R
RALEIGH        CLEAR     49  16  26 NW10G20   29.92R
ELIZABETH CITY CLEAR     55  30  38 NW9       29.84R
AHOSKIE*         N/A     50  21  31 NW5       29.88R
EDENTON*       CLEAR     57  30  35 NW14G21   29.86R
CURRITUCK*     CLEAR     54  45  71 CALM      29.83R
KILL DEVIL HLS NOT AVBL
MANTEO         PTCLDY    54  46  76 NE9       29.83R
CAPE HATTERAS  PTCLDY    59  49  69 VRB7      29.82R
TARBORO*       NOT AVBL
GOLDSBORO      CLEAR     56  21  25 NW10      29.87R
WASHINGTON     CLEAR     56  28  34 NW8       29.86R
GREENVILLE     CLEAR     55  28  35 NW7       29.90R
NEW BERN       CLEAR     56  35  45 NW7       29.86R
WILMINGTON     CLEAR     59  24  26 NW12      29.88R
$$

VAZ048-260700-
ELSEWHERE

CITY           SKY/WX    TMP DP  RH WIND       PRES   REMARKS
HARRISBURG PA  MOCLDY    38  20  48 NW23G29   29.86R
BALTIMORE      MOCLDY    41  24  51 W16G26    29.87R
ANNAPOLIS      MOCLDY    45  25  45 NW15G24   29.87R
ANDREWS AFB    PTCLDY    42  23  46 W14G24    29.87R
PHILADELPHIA   PTCLDY    45  25  45 NW18G25   29.79R
HENDERSON NC   CLEAR     43  16  34 NW10G22   29.91R
GREENSBORO     CLEAR     41  17  38 NW15      29.95R
ROCKY MOUNT    CLEAR     51  26  37 NW10G21   29.89R
$$

VAZ100-260700-
MARINE

STATION/POSITION TIME  TEMP    WIND        PRES    WAVE   SWELL
                       AIR SEA DIR/SP/G            HT/PER HT/PER
                 (UTC) (F)     (DEG/KT/KT) (MB)    (FT/S) (FT/S)
CAPE MAY NJ      0548   46 46  310/ 16/ 30 1008.3R
LEWES DE         0542   48 46  320/ 27/ 32 1008.5R
OCEAN-CITY-INLET 0542   49 46  340/ 14/ 19 1009.1R
WACHAPREAGUE VA  0548   49 59  350/  7/ 15 1009.6R
THOMAS POINT MD  0600   44 44  320/ 18/ 21   N/A
GOOSES REEF MD   0600   45 44  330/ 19/ 23 1011.8    2/ 3
COVE POINT MD    0548   44     340/ 28/ 33 1011.1R
SOLOMONS ISLAND  0542   45 44  320/ 17/ 26   N/A
BISHOPS HEAD MD  0548   46 53  320/ 15/ 22 1010.9R
PINEY POINT MD   0548          350/ 26/ 30   N/A
POTOMAC MD       0600   46 46  340/ 17/ 23 1010.4    2/ 3
CAMBRIDGE MD     0548   46 47  310/ 17/ 22 1010.0R
LEWISETTA VA     0548   47 48  340/ 14/ 22 1010.9R
RAPPAHANNOCK LGT 0548          340/ 22/ 24 1010.4R
YORK RVR RNG VA  0548   54     310/ 18/ 20 1009.4R
YORKTOWN VA      0548   54 51  300/ 14/ 16 1009.9R
JAMESTOWN VA     0600   52 54  300/ 16/ 19   N/A     1/ 2
DOMINION TERM VA 0548   53     320/ 17/ 21 1010.0R
KIPTOPEKE VA     0542      52   10/ 10/ 14   N/A
CHES BAY BRIDGE  0548   51 49  300/  7/  7 1009.7R
CAPE HENRY VA    0548   51     280/  5/  7   N/A
WILLOUBY STN VA  0548   55     300/ 19/ 22 1010.8R
S CRANEY ISL VA  0548   54     290/  8/ 14 1009.8R
CAPE HENRY BUOY  0542      50                N/A     4/10   2/11
OFFSHORE WE BUOY 0551      50                N/A     4/11   2/11
64NM E OF VA BCH 0550   53 52  350/ 12/ 16 1008.4R   6/11   5/11
DUCK PIER NC     0548   52 48  340/ 11/ 11 1009.2R
44100 DUCK FRF   0535      51                N/A     4/10   2/11
44056 DUCK FRF   0530      50                N/A     3/11   2/11
OREGON INLET NC  0542   51 62  360/  7/  9 1009.5R
HATTERAS NC      0548   61 64  330/ 13/ 15 1009.3R
DIAMOND SHLS NC  0550   65 74  350/ 23/ 29 1008.8R   8/ 7   5/10
CAPE LOOKOUT NC  0600   62     350/ 16/ 19 1010.3R
$$




USA.gov is the U.S. government's official web portal to all federal, state and local government web resources and services.